Terminal Aerodrome Forecast
Issued by NWS

Home | Current Version | Previous Version | Text Only | Print | Product List | Glossary Off
Versions: 1 2 3 4 5 6 7 8 9 10 11 12 13 14 15 16 17 18 19 20 21 22 23 24 25 26 27

000
FTUS43 KDDC 260726 AAA
TAFGCK
TAF AMD
KGCK 260726Z 2607/2706 36020G31KT P6SM OVC100
     FM261500 33015G21KT P6SM SCT080 BKN200
     FM262300 VRB06KT P6SM FEW200=

USA.gov is the U.S. government's official web portal to all federal, state and local government web resources and services.